Location: Home
(42.5358°N, 72.7383°W)
Time: 03:24:54
(UTC-04:00)

Vanguard 1 - Pass Details

Date: 30 May 2022
Orbit: 649 x 3832 km, 34.2° (Epoch: 24 June)

Event Time Altitude Azimuth Distance (km) Brightness Sun altitude
Exits shadow 00:01:10 35° 156° (SSE) 3,066 12.0 -24.8°
Maximum altitude 00:02:47 36° 142° (SE) 3,176 12.1 -24.8°
Drops below altitude 10° 00:18:01 10° 85° (E) 6,206 14.1 -25.3°
Sets 00:24:12 0° 79° (E) 7,601 14.7 -25.5°
